[[{"header":{"parameterUnit":"m.s-1","parameterCategory":1,"la1":30.2991,"la2":30.254,"lo1":-89.0895,"lo2":-89.0444,"dy":0.0017,"dx":0.0017,"nx":28,"ny":28,"refTime":"2025-09-12T21:00:00:Z","depth":0,"parameterNumber":2,"parameterNumberName":"U-component_of_WINDS"},"data":[0,0,0,0,0,0,0,0,0,0,0,0,0,0,0,0,0,0,0,0,0,0,0,0,0,0,0,0,0,0,0,0,0,0,0,0,0,0,0,0,0,0,0,0,0,0,0,0,0,0,0,0,0,0,0,0,0,0,-0.3532,-0.3531,0,-0.3511,-0.3511,-0.3511,-0.3483,-0.3482,-0.3482,-0.3481,-0.3463,-0.3463,-0.3462,0,0,0,0,0,0,0,0,0,0,0,0,0,-0.3549,-0.3549,-0.3532,-0.3531,-0.3531,-0.3511,-0.3511,-0.3511,-0.3483,-0.3482,-0.3482,-0.3481,-0.3463,-0.3463,-0.3462,0,0,0,0,0,0,0,0,0,0,0,0,0,-0.3536,-0.3549,-0.3532,-0.3515,-0.3513,-0.3511,-0.3511,-0.351,-0.3483,-0.3482,-0.3482,-0.3481,-0.3463,-0.3463,-0.3462,-0.3476,0,0,-0.3462,-0.3462,0,0,0,0,0,0,0,0,-0.3537,-0.3536,-0.3518,-0.3516,-0.3514,-0.3499,-0.351,-0.3499,-0.3483,-0.3495,-0.3481,-0.3481,-0.3475,-0.3474,-0.3472,-0.3475,-0.3474,-0.3462,-0.3462,-0.3462,-0.3462,0,0,0,0,0,0,0,-0.3538,-0.3536,-0.3524,-0.3517,-0.3515,-0.3509,-0.3506,-0.3508,-0.3489,-0.3493,-0.3491,-0.3489,-0.3474,-0.3472,-0.3471,-0.3474,-0.3462,-0.3462,-0.3462,-0.3462,-0.3488,-0.3489,0,0,0,0,0,0,-0.3541,-0.3537,-0.3524,-0.3523,-0.3524,-0.3509,-0.3506,-0.3504,-0.3489,-0.3486,-0.349,-0.3488,-0.3473,-0.3471,-0.3471,-0.3486,-0.3462,-0.3462,-0.3462,-0.3488,-0.3489,-0.3489,0,0,0,0,0,0,-0.3542,-0.354,-0.3525,-0.353,-0.3527,-0.351,-0.3508,-0.3504,-0.3502,-0.3486,-0.3483,-0.3491,-0.3472,-0.3471,-0.3475,-0.3485,-0.3462,-0.3462,-0.3487,-0.3488,-0.3489,-0.3517,0,0,0,0,0,0,-0.3542,-0.354,-0.3545,-0.353,-0.3527,-0.3529,-0.3508,-0.3504,-0.3502,-0.3499,-0.3486,-0.3484,-0.3471,-0.3475,-0.3475,-0.3484,-0.3462,-0.3486,-0.3487,-0.3489,-0.3515,-0.3519,-0.3522,0,0,0,0,0,-0.3543,-0.3554,-0.3545,-0.3544,-0.3532,-0.353,-0.3528,-0.3513,-0.3503,-0.3507,-0.3497,-0.3484,-0.3484,-0.3476,-0.3475,-0.3485,-0.3485,-0.3487,-0.3488,-0.3513,-0.3518,-0.3522,0,0,0,0,0,0,-0.3571,-0.3552,-0.3542,-0.3548,-0.3541,-0.3525,-0.3531,-0.3518,-0.3514,-0.3512,-0.3494,-0.3492,-0.3498,-0.3492,-0.3484,-0.3498,-0.3482,-0.3484,-0.3502,-0.3506,-0.351,-0.3511,-0.3462,0,0,0,0,0,-0.3578,-0.3577,-0.356,-0.3568,-0.3564,-0.3548,-0.3547,-0.3536,-0.3528,-0.3524,-0.3515,-0.3508,-0.3506,-0.3506,-0.3503,-0.3514,-0.3511,-0.352,-0.3524,-0.3527,-0.3529,-0.3535,-0.3539,-0.3495,-0.3495,-0.3495,0,0,-0.3593,-0.3582,-0.3583,-0.3573,-0.3566,-0.3566,-0.3546,-0.3547,-0.3547,-0.3525,-0.3528,-0.3521,-0.3512,-0.352,-0.3523,-0.3515,-0.354,-0.3529,-0.3531,-0.3532,-0.3537,-0.3541,-0.3545,-0.3496,-0.3496,-0.3496,0,0,-0.362,-0.3611,-0.3616,-0.3609,-0.3599,-0.3588,-0.3589,-0.3575,-0.357,-0.3572,-0.3556,-0.3556,-0.3554,-0.3548,-0.3545,-0.357,-0.3558,-0.357,-0.3589,-0.3595,-0.3599,-0.3602,-0.3611,-0.3615,-0.3572,-0.3572,-0.3572,0,-0.3639,-0.3638,-0.3621,-0.3623,-0.362,-0.3599,-0.3605,-0.3599,-0.3589,-0.3587,-0.3578,-0.3575,-0.3568,-0.3574,-0.358,-0.3578,-0.358,-0.3572,-0.3599,-0.3602,-0.3605,-0.3614,-0.3617,-0.3574,-0.3573,-0.3573,-0.3573,0,-0.3663,-0.3663,-0.3669,-0.3658,-0.3656,-0.366,-0.3644,-0.3643,-0.3633,-0.3623,-0.3627,-0.3617,-0.3613,-0.3613,-0.3603,-0.3619,-0.3614,-0.3602,-0.3587,-0.3611,-0.3619,-0.3622,-0.3576,-0.3575,-0.3575,-0.3574,0,0,-0.3708,-0.3688,-0.369,-0.3686,-0.3672,-0.3672,-0.3676,-0.3671,-0.3671,-0.3665,-0.3668,-0.3666,-0.3655,-0.3652,-0.3641,-0.3646,-0.3667,-0.3633,-0.3633,-0.3641,-0.3685,-0.3694,-0.3698,-0.3659,-0.3659,-0.366,-0.3686,0,-0.3733,-0.3737,-0.3721,-0.373,-0.373,-0.371,-0.3713,-0.3706,-0.3697,-0.3696,-0.3686,-0.3686,-0.3671,-0.3669,-0.3673,-0.3664,-0.3676,-0.3661,-0.3662,-0.3663,-0.3666,-0.3703,-0.3712,-0.3737,-0.3689,-0.3689,-0.369,0,-0.3763,-0.3757,-0.3765,-0.3752,-0.3751,-0.3754,-0.3749,-0.3748,-0.374,-0.3733,-0.3729,-0.3716,-0.3719,-0.3704,-0.3709,-0.3699,-0.3699,-0.3694,-0.3695,-0.3695,-0.3678,-0.3705,-0.3745,-0.3749,-0.3694,-0.3694,-0.3694,0,-0.3796,-0.379,-0.3795,-0.3791,-0.3775,-0.3778,-0.3772,-0.3762,-0.3761,-0.3756,-0.3755,-0.3751,-0.3749,-0.3747,-0.3733,-0.3723,-0.374,-0.3723,-0.3735,-0.3736,-0.374,-0.374,-0.3782,-0.3739,-0.3739,-0.3739,-0.3739,0,-0.3826,-0.3832,-0.3809,-0.3812,-0.3818,-0.3801,-0.3808,-0.38,-0.3792,-0.3793,-0.3776,-0.3778,-0.3759,-0.376,-0.3749,-0.3755,-0.3754,-0.375,-0.3747,-0.3752,-0.3753,-0.3752,-0.375,-0.374,-0.3739,-0.3739,-0.3739,0,-0.3864,-0.3849,-0.3852,-0.3837,-0.3833,-0.3839,-0.3826,-0.3829,-0.3818,-0.3821,-0.382,-0.3805,-0.3804,-0.379,-0.3786,-0.3779,-0.379,-0.3784,-0.3793,-0.3791,-0.3804,-0.3804,-0.3848,-0.3853,-0.3806,-0.3806,-0.3807,0,-0.3884,-0.3889,-0.3873,-0.3873,-0.3867,-0.3866,-0.3864,-0.3847,-0.3846,-0.3837,-0.384,-0.3838,-0.3836,-0.3836,-0.3825,-0.3822,-0.3816,-0.3832,-0.3816,-0.382,-0.3817,-0.3818,-0.3818,-0.3835,-0.3836,-0.3836,-0.3837,0,-0.3923,-0.3915,-0.3912,-0.3907,-0.3905,-0.39,-0.3894,-0.3895,-0.3876,-0.3876,-0.3875,-0.3873,-0.3869,-0.3867,-0.3862,-0.3857,-0.3844,-0.3842,-0.3845,-0.385,-0.3855,-0.3854,-0.3803,-0.3841,-0.3841,-0.384,-0.384,-0.384,-0.3954,-0.3956,-0.3946,-0.3944,-0.3938,-0.3933,-0.3934,-0.3924,-0.3922,-0.3918,-0.3908,-0.3908,-0.39,-0.3892,-0.3888,-0.3889,-0.3881,-0.3885,-0.3886,-0.3887,-0.389,-0.3854,-0.3888,-0.3888,-0.3887,-0.3887,-0.3887,0,-0.3992,-0.3984,-0.3982,-0.3974,-0.3973,-0.396,-0.3953,-0.3952,-0.3953,-0.3946,-0.3943,-0.3942,-0.3941,-0.3929,-0.3927,-0.3929,-0.3924,-0.3929,-0.393,-0.3929,-0.3897,-0.3895,-0.3934,-0.3934,-0.3934,-0.3934,-0.3934,-0.3934,-0.4012,-0.4016,-0.4007,-0.4009,-0.4001,-0.4001,-0.3998,-0.3994,-0.3988,-0.3988,-0.3986,-0.3978,-0.397,-0.3966,-0.3964,-0.3961,-0.3961,-0.3969,-0.3964,-0.3935,-0.3931,-0.3927,-0.3925,-0.3969,-0.3969,-0.3996,-0.3996,-0.3997]},{"header":{"parameterUnit":"m.s-1","parameterCategory":1,"la1":30.2991,"la2":30.254,"lo1":-89.0895,"lo2":-89.0444,"dy":0.0017,"dx":0.0017,"nx":28,"ny":28,"refTime":"2025-09-12T21:00:00:Z","depth":0,"parameterNumber":3,"parameterNumberName":"V-component_of_WINDS"},"data":[0,0,0,0,0,0,0,0,0,0,0,0,0,0,0,0,0,0,0,0,0,0,0,0,0,0,0,0,0,0,0,0,0,0,0,0,0,0,0,0,0,0,0,0,0,0,0,0,0,0,0,0,0,0,0,0,0,0,1.4635,1.4634,0,1.4597,1.4596,1.4596,1.4563,1.4563,1.4562,1.4562,1.4522,1.4521,1.452,0,0,0,0,0,0,0,0,0,0,0,0,0,1.4676,1.4676,1.4635,1.4634,1.4634,1.4597,1.4596,1.4596,1.4563,1.4563,1.4562,1.4562,1.4522,1.4521,1.452,0,0,0,0,0,0,0,0,0,0,0,0,0,1.465,1.4676,1.4635,1.4613,1.4611,1.4597,1.4596,1.4596,1.4563,1.4563,1.4562,1.4562,1.4522,1.4521,1.452,1.4524,0,0,1.4517,1.4516,0,0,0,0,0,0,0,0,1.4652,1.4649,1.4617,1.4614,1.4612,1.4584,1.4596,1.4572,1.4563,1.4581,1.4562,1.4561,1.4543,1.454,1.4534,1.4522,1.452,1.4516,1.4516,1.4515,1.4515,0,0,0,0,0,0,0,1.4654,1.465,1.462,1.4616,1.4613,1.4604,1.46,1.4591,1.4565,1.458,1.4577,1.4573,1.4541,1.4535,1.4533,1.452,1.4516,1.4515,1.4515,1.4514,1.4508,1.4508,0,0,0,0,0,0,1.4659,1.4652,1.4621,1.4618,1.4631,1.4604,1.4599,1.4594,1.4565,1.4561,1.4574,1.4572,1.4537,1.4534,1.4531,1.4533,1.4515,1.4514,1.4514,1.4507,1.4508,1.4509,0,0,0,0,0,0,1.466,1.4657,1.4622,1.4635,1.4629,1.4604,1.4598,1.4593,1.4587,1.4561,1.4556,1.4572,1.4537,1.4533,1.4526,1.4531,1.4514,1.4513,1.4507,1.4508,1.4508,1.4538,0,0,0,0,0,0,1.4662,1.4657,1.4659,1.4635,1.4629,1.4618,1.4598,1.4593,1.4585,1.4582,1.4558,1.4554,1.4536,1.4528,1.4525,1.4529,1.4512,1.4506,1.4507,1.4508,1.4536,1.454,1.4542,0,0,0,0,0,1.4663,1.4669,1.4659,1.4656,1.4631,1.4619,1.4615,1.4595,1.4586,1.4587,1.457,1.4555,1.4531,1.4527,1.4524,1.4528,1.4506,1.4507,1.4508,1.4535,1.4539,1.4542,0,0,0,0,0,0,1.4694,1.4665,1.4655,1.4653,1.4639,1.4613,1.4614,1.46,1.4588,1.4586,1.4561,1.4555,1.4551,1.4539,1.4535,1.453,1.4516,1.4517,1.4538,1.4542,1.4545,1.4547,1.4511,0,0,0,0,0,1.4701,1.4694,1.4669,1.467,1.4663,1.464,1.4634,1.462,1.4604,1.4597,1.458,1.4565,1.4554,1.4547,1.4536,1.4534,1.4528,1.4536,1.4539,1.4541,1.4542,1.4539,1.4542,1.4512,1.4512,1.4512,0,0,1.4714,1.4698,1.4695,1.4676,1.4663,1.4656,1.4635,1.4629,1.4623,1.4596,1.4589,1.4575,1.4556,1.4552,1.4549,1.4542,1.4548,1.4543,1.4545,1.4544,1.454,1.4543,1.4546,1.4513,1.4513,1.4513,0,0,1.4735,1.4723,1.4721,1.4709,1.469,1.4675,1.4674,1.4651,1.4641,1.4634,1.4613,1.4605,1.4587,1.4574,1.4565,1.4581,1.4565,1.4578,1.4593,1.4591,1.4593,1.4595,1.4599,1.4601,1.4578,1.4578,1.4578,0,1.4754,1.4743,1.4722,1.4717,1.4708,1.4684,1.4682,1.4671,1.4649,1.4644,1.4636,1.4612,1.4598,1.4589,1.4593,1.4587,1.4585,1.458,1.4594,1.4596,1.4598,1.4601,1.4603,1.458,1.458,1.458,1.4579,0,1.4767,1.476,1.4761,1.4741,1.4732,1.4729,1.4706,1.47,1.4686,1.4671,1.4663,1.4645,1.4629,1.4626,1.4612,1.4615,1.4611,1.4599,1.4585,1.4602,1.4605,1.4607,1.4582,1.4582,1.4581,1.4581,0,0,1.4806,1.4774,1.4775,1.4765,1.4742,1.4736,1.4731,1.4715,1.471,1.4696,1.469,1.4675,1.4663,1.4653,1.4638,1.4636,1.4648,1.4624,1.4623,1.4628,1.4648,1.4657,1.4659,1.4638,1.4638,1.4638,1.465,0,1.4823,1.4813,1.4793,1.4789,1.4781,1.4758,1.4753,1.4738,1.4724,1.4714,1.4698,1.4688,1.4674,1.4667,1.4665,1.4647,1.4651,1.4646,1.4631,1.4631,1.4636,1.4661,1.467,1.4682,1.4651,1.4651,1.4651,0,1.4841,1.4828,1.4823,1.48,1.4796,1.4792,1.4776,1.4768,1.4749,1.4739,1.4728,1.4711,1.4703,1.469,1.4678,1.4675,1.4667,1.4658,1.4658,1.4655,1.4642,1.4658,1.4686,1.4687,1.4653,1.4653,1.4653,0,1.4869,1.485,1.4845,1.4837,1.481,1.4808,1.4796,1.4778,1.477,1.4755,1.4749,1.4734,1.4726,1.4714,1.4693,1.4686,1.4683,1.4669,1.4673,1.4674,1.4673,1.4673,1.4699,1.467,1.467,1.467,1.467,0,1.4889,1.4886,1.4857,1.4853,1.4849,1.4827,1.4823,1.4809,1.4793,1.4786,1.4765,1.4758,1.4731,1.4721,1.4705,1.4696,1.4693,1.4683,1.4679,1.4685,1.4686,1.4679,1.4678,1.467,1.467,1.467,1.467,0,1.4919,1.49,1.4892,1.4867,1.486,1.4859,1.4837,1.4832,1.4816,1.4807,1.4803,1.4779,1.4766,1.4744,1.4724,1.4713,1.4707,1.47,1.4714,1.4711,1.4716,1.4715,1.4738,1.4739,1.471,1.471,1.471,0,1.4933,1.4931,1.4906,1.4899,1.4889,1.4879,1.487,1.4848,1.484,1.4819,1.4816,1.4801,1.4788,1.4768,1.4748,1.4732,1.4724,1.4733,1.4722,1.4727,1.4723,1.4723,1.4722,1.4735,1.4736,1.4736,1.4736,0,1.4959,1.4949,1.4938,1.4924,1.4914,1.4901,1.4887,1.4883,1.4857,1.4849,1.4835,1.4825,1.4805,1.479,1.4772,1.4759,1.4743,1.474,1.474,1.4746,1.4753,1.4748,1.472,1.474,1.4739,1.4739,1.4739,1.4739,1.4981,1.4977,1.4959,1.4947,1.4934,1.4921,1.4915,1.4899,1.4888,1.487,1.4857,1.4844,1.4825,1.4799,1.4786,1.4775,1.4768,1.4768,1.4768,1.4769,1.477,1.4756,1.4772,1.4772,1.4772,1.4772,1.4772,0,1.5005,1.4992,1.4982,1.4963,1.4953,1.494,1.4923,1.4916,1.4905,1.4889,1.4876,1.486,1.4845,1.4824,1.4807,1.4802,1.4795,1.4799,1.4798,1.4795,1.4778,1.4779,1.4805,1.4805,1.4805,1.4805,1.4805,1.4805,1.5017,1.501,1.4998,1.4983,1.497,1.4958,1.4949,1.4937,1.4924,1.4907,1.4895,1.4881,1.4862,1.4844,1.483,1.4824,1.4818,1.4824,1.4816,1.48,1.4797,1.4794,1.4795,1.4824,1.4824,1.4834,1.4834,1.4834]}]]